Time,TemperatureF,DewpointF,PressureIn,WindDirection,WindDirectionDegrees,WindSpeedMPH,WindSpeedGustMPH,Humidity,HourlyPrecipIn,Conditions,Clouds,dailyrainin,SoftwareType,DateUTC
2013-07-03 00:01:00,71.6,68.5,0.00,North,0,0.0,0.0,90,0.00,,,0.00,WUHU21623XXSP,2013-07-03 04:01:00,
2013-07-03 00:06:00,71.6,68.5,0.00,North,0,0.0,0.0,90,0.00,,,0.00,WUHU21623XXSP,2013-07-03 04:06:00,
2013-07-03 00:11:00,71.8,68.7,0.00,North,0,0.0,0.0,90,0.00,,,0.00,WUHU21623XXSP,2013-07-03 04:11:00,
2013-07-03 00:16:00,71.8,68.7,0.00,North,0,0.0,0.0,90,0.00,,,0.00,WUHU21623XXSP,2013-07-03 04:16:00,
2013-07-03 00:21:00,71.8,68.7,0.00,North,0,0.0,0.0,90,0.00,,,0.00,WUHU21623XXSP,2013-07-03 04:21:00,
2013-07-03 00:26:00,71.8,68.7,0.00,North,0,0.0,0.0,90,0.00,,,0.00,WUHU21623XXSP,2013-07-03 04:26:00,
2013-07-03 00:31:00,71.8,68.7,0.00,North,0,0.0,0.0,90,0.00,,,0.00,WUHU21623XXSP,2013-07-03 04:31:00,
2013-07-03 00:36:00,71.8,68.7,0.00,North,0,0.0,0.0,90,0.00,,,0.00,WUHU21623XXSP,2013-07-03 04:36:00,
2013-07-03 00:41:00,71.8,68.7,0.00,North,0,0.0,0.0,90,0.00,,,0.00,WUHU21623XXSP,2013-07-03 04:41:00,
2013-07-03 00:58:00,71.8,68.7,0.00,North,0,0.0,0.0,90,0.00,,,0.00,WUHU21623XXSP,2013-07-03 04:58:00,
2013-07-03 01:03:00,71.8,68.7,0.00,North,0,0.0,0.0,90,0.00,,,0.00,WUHU21623XXSP,2013-07-03 05:03:00,
2013-07-03 01:08:00,71.8,68.7,0.00,North,0,0.0,0.0,90,0.00,,,0.00,WUHU21623XXSP,2013-07-03 05:08:00,
2013-07-03 01:13:00,71.8,68.7,0.00,North,0,0.0,0.0,90,0.00,,,0.00,WUHU21623XXSP,2013-07-03 05:13:00,
2013-07-03 01:18:00,71.8,68.7,0.00,North,0,0.0,0.0,90,0.00,,,0.00,WUHU21623XXSP,2013-07-03 05:18:00,
2013-07-03 01:23:00,71.8,68.7,0.00,North,0,0.0,0.0,90,0.00,,,0.00,WUHU21623XXSP,2013-07-03 05:23:00,
2013-07-03 01:28:00,71.8,68.7,0.00,North,0,0.0,0.0,90,0.00,,,0.00,WUHU21623XXSP,2013-07-03 05:28:00,
2013-07-03 01:33:00,71.8,68.7,0.00,North,0,0.0,0.0,90,0.00,,,0.00,WUHU21623XXSP,2013-07-03 05:33:00,
2013-07-03 01:38:00,71.8,68.7,0.00,North,0,0.0,0.0,90,0.00,,,0.00,WUHU21623XXSP,2013-07-03 05:38:00,
2013-07-03 01:43:00,71.8,68.7,0.00,North,0,0.0,0.0,90,0.00,,,0.00,WUHU21623XXSP,2013-07-03 05:43:00,
2013-07-03 01:48:00,71.8,68.7,0.00,North,0,0.0,0.0,90,0.00,,,0.00,WUHU21623XXSP,2013-07-03 05:48:00,
2013-07-03 01:53:00,71.8,68.7,0.00,North,0,0.0,0.0,90,0.00,,,0.00,WUHU21623XXSP,2013-07-03 05:53:00,
2013-07-03 01:58:00,71.8,68.7,0.00,North,0,0.0,0.0,90,0.00,,,0.00,WUHU21623XXSP,2013-07-03 05:58:00,
2013-07-03 02:03:00,71.8,68.7,0.00,North,0,0.0,0.0,90,0.00,,,0.00,WUHU21623XXSP,2013-07-03 06:03:00,
2013-07-03 02:08:00,71.8,68.7,0.00,North,0,0.0,0.0,90,0.00,,,0.00,WUHU21623XXSP,2013-07-03 06:08:00,
2013-07-03 02:13:00,71.8,68.7,0.00,North,0,0.0,0.0,90,0.00,,,0.00,WUHU21623XXSP,2013-07-03 06:13:00,
2013-07-03 02:18:00,71.6,68.5,0.00,North,0,0.0,0.0,90,0.00,,,0.00,WUHU21623XXSP,2013-07-03 06:18:00,
2013-07-03 02:23:00,71.6,68.5,0.00,North,0,0.0,0.0,90,0.00,,,0.00,WUHU21623XXSP,2013-07-03 06:23:00,
2013-07-03 02:29:00,71.6,68.5,0.00,North,0,0.0,0.0,90,0.00,,,0.00,WUHU21623XXSP,2013-07-03 06:29:00,
2013-07-03 02:34:00,71.6,68.5,0.00,North,0,0.0,0.0,90,0.00,,,0.00,WUHU21623XXSP,2013-07-03 06:34:00,
2013-07-03 02:39:00,71.6,68.5,0.00,North,0,0.0,0.0,90,0.00,,,0.00,WUHU21623XXSP,2013-07-03 06:39:00,
2013-07-03 02:44:00,71.6,68.5,0.00,North,0,0.0,0.0,90,0.00,,,0.00,WUHU21623XXSP,2013-07-03 06:44:00,
2013-07-03 02:49:00,71.4,68.4,0.00,North,0,0.0,0.0,90,0.00,,,0.00,WUHU21623XXSP,2013-07-03 06:49:00,
2013-07-03 02:54:00,71.4,68.4,0.00,North,0,0.0,0.0,90,0.00,,,0.00,WUHU21623XXSP,2013-07-03 06:54:00,
2013-07-03 02:59:00,71.4,68.4,0.00,North,0,0.0,0.0,90,0.00,,,0.00,WUHU21623XXSP,2013-07-03 06:59:00,
2013-07-03 03:04:00,71.4,68.4,0.00,North,0,0.0,0.0,90,0.02,,,0.00,WUHU21623XXSP,2013-07-03 07:04:00,
2013-07-03 03:09:00,71.4,68.4,0.00,North,0,0.0,0.0,90,0.02,,,0.02,WUHU21623XXSP,2013-07-03 07:09:00,
2013-07-03 03:14:00,71.4,68.4,0.00,North,0,0.0,0.0,90,0.02,,,0.02,WUHU21623XXSP,2013-07-03 07:14:00,
2013-07-03 03:19:00,71.4,68.4,0.00,North,0,0.0,0.0,90,0.02,,,0.02,WUHU21623XXSP,2013-07-03 07:19:00,
2013-07-03 03:24:00,71.4,68.4,0.00,North,0,0.0,0.0,90,0.04,,,0.02,WUHU21623XXSP,2013-07-03 07:24:00,
2013-07-03 03:29:00,71.4,68.4,0.00,North,0,0.0,0.0,90,0.04,,,0.04,WUHU21623XXSP,2013-07-03 07:29:00,
2013-07-03 03:34:00,71.4,68.4,0.00,North,0,0.0,0.0,90,0.08,,,0.06,WUHU21623XXSP,2013-07-03 07:34:00,
2013-07-03 03:39:00,71.4,68.4,0.00,North,0,0.0,0.0,90,0.08,,,0.08,WUHU21623XXSP,2013-07-03 07:39:00,
2013-07-03 03:44:00,71.4,68.4,0.00,North,0,0.0,0.0,90,0.10,,,0.08,WUHU21623XXSP,2013-07-03 07:44:00,
2013-07-03 03:49:00,71.4,68.4,0.00,North,0,0.0,0.0,90,0.10,,,0.10,WUHU21623XXSP,2013-07-03 07:49:00,
2013-07-03 03:54:00,71.4,68.4,0.00,North,0,0.0,0.0,90,0.10,,,0.10,WUHU21623XXSP,2013-07-03 07:54:00,
2013-07-03 03:59:00,71.4,68.4,0.00,North,0,0.0,0.0,90,0.08,,,0.10,WUHU21623XXSP,2013-07-03 07:59:00,
2013-07-03 04:04:00,71.2,68.4,0.00,North,0,0.0,0.0,90,0.12,,,0.10,WUHU21623XXSP,2013-07-03 08:04:00,
2013-07-03 04:09:00,71.2,68.2,0.00,North,0,0.0,0.0,90,0.12,,,0.14,WUHU21623XXSP,2013-07-03 08:09:00,
2013-07-03 04:14:00,71.2,68.2,0.00,North,0,0.0,0.0,90,0.12,,,0.14,WUHU21623XXSP,2013-07-03 08:14:00,
2013-07-03 04:19:00,71.2,68.2,0.00,North,0,0.0,0.0,90,0.12,,,0.14,WUHU21623XXSP,2013-07-03 08:19:00,
2013-07-03 04:24:00,71.2,68.2,0.00,North,0,0.0,0.0,90,0.10,,,0.14,WUHU21623XXSP,2013-07-03 08:24:00,
2013-07-03 04:30:00,71.2,68.2,0.00,North,0,0.0,0.0,90,0.10,,,0.14,WUHU21623XXSP,2013-07-03 08:30:00,
2013-07-03 04:35:00,71.2,68.2,0.00,North,0,0.0,0.0,90,0.16,,,0.18,WUHU21623XXSP,2013-07-03 08:35:00,
2013-07-03 04:40:00,71.2,68.2,0.00,North,0,0.0,0.0,90,0.18,,,0.25,WUHU21623XXSP,2013-07-03 08:40:00,
2013-07-03 04:45:00,71.2,68.2,0.00,North,0,0.0,0.0,90,0.18,,,0.29,WUHU21623XXSP,2013-07-03 08:45:00,
2013-07-03 04:50:00,71.2,68.2,0.00,North,0,0.0,0.0,90,0.20,,,0.31,WUHU21623XXSP,2013-07-03 08:50:00,
2013-07-03 04:55:00,71.2,68.2,0.00,North,0,0.0,0.0,90,0.20,,,0.31,WUHU21623XXSP,2013-07-03 08:55:00,
2013-07-03 05:00:00,71.2,68.2,0.00,North,0,0.0,0.0,90,0.20,,,0.31,WUHU21623XXSP,2013-07-03 09:00:00,
2013-07-03 05:05:00,71.2,68.2,0.00,North,0,0.0,0.0,90,0.16,,,0.31,WUHU21623XXSP,2013-07-03 09:05:00,
2013-07-03 05:10:00,71.2,68.2,0.00,North,0,0.0,0.0,90,0.16,,,0.31,WUHU21623XXSP,2013-07-03 09:10:00,
2013-07-03 05:15:00,71.2,68.2,0.00,North,0,0.0,0.0,90,0.16,,,0.31,WUHU21623XXSP,2013-07-03 09:15:00,
2013-07-03 05:21:00,71.2,68.2,0.00,North,0,0.0,0.0,90,0.16,,,0.31,WUHU21623XXSP,2013-07-03 09:21:00,
2013-07-03 05:26:00,71.2,68.2,0.00,North,0,0.0,0.0,90,0.16,,,0.31,WUHU21623XXSP,2013-07-03 09:26:00,
2013-07-03 05:31:00,71.2,68.2,0.00,North,0,0.0,0.0,90,0.12,,,0.31,WUHU21623XXSP,2013-07-03 09:31:00,
2013-07-03 05:36:00,71.2,68.2,0.00,North,0,0.0,0.0,90,0.06,,,0.31,WUHU21623XXSP,2013-07-03 09:36:00,
2013-07-03 05:41:00,71.2,68.2,0.00,North,0,0.0,0.0,90,0.02,,,0.31,WUHU21623XXSP,2013-07-03 09:41:00,
2013-07-03 05:46:00,71.2,68.2,0.00,North,0,0.0,0.0,90,0.00,,,0.31,WUHU21623XXSP,2013-07-03 09:46:00,
2013-07-03 05:51:00,71.2,68.2,0.00,North,0,0.0,0.0,90,0.00,,,0.31,WUHU21623XXSP,2013-07-03 09:51:00,
2013-07-03 05:56:00,71.2,68.2,0.00,North,0,0.0,0.0,90,0.00,,,0.31,WUHU21623XXSP,2013-07-03 09:56:00,
2013-07-03 06:01:00,71.2,68.2,0.00,North,0,0.0,0.0,90,0.00,,,0.31,WUHU21623XXSP,2013-07-03 10:01:00,
2013-07-03 06:06:00,71.2,68.2,0.00,North,0,0.0,0.0,90,0.00,,,0.31,WUHU21623XXSP,2013-07-03 10:06:00,
2013-07-03 06:11:00,71.2,68.2,0.00,North,0,0.0,0.0,90,0.00,,,0.31,WUHU21623XXSP,2013-07-03 10:11:00,
2013-07-03 06:39:00,71.2,68.2,0.00,North,0,0.0,0.0,90,0.00,,,0.31,WUHU21623XXSP,2013-07-03 10:39:00,
2013-07-03 06:44:00,71.2,68.2,0.00,North,0,0.0,0.0,90,0.00,,,0.31,WUHU21623XXSP,2013-07-03 10:44:00,
2013-07-03 06:49:00,71.2,68.2,0.00,North,0,0.0,0.0,90,0.00,,,0.31,WUHU21623XXSP,2013-07-03 10:49:00,
2013-07-03 06:54:00,71.2,68.2,0.00,North,0,0.0,0.0,90,0.00,,,0.31,WUHU21623XXSP,2013-07-03 10:54:00,
2013-07-03 06:59:00,71.2,68.2,0.00,North,0,0.0,0.0,90,0.00,,,0.31,WUHU21623XXSP,2013-07-03 10:59:00,
2013-07-03 07:04:00,71.2,68.2,0.00,North,0,0.0,0.0,90,0.00,,,0.31,WUHU21623XXSP,2013-07-03 11:04:00,
2013-07-03 07:09:00,71.2,68.2,0.00,North,0,0.0,0.0,90,0.00,,,0.31,WUHU21623XXSP,2013-07-03 11:09:00,
2013-07-03 07:14:00,71.2,68.2,0.00,North,0,0.0,0.0,90,0.00,,,0.31,WUHU21623XXSP,2013-07-03 11:14:00,
2013-07-03 07:19:00,71.4,68.4,0.00,North,0,0.0,0.0,90,0.00,,,0.31,WUHU21623XXSP,2013-07-03 11:19:00,
2013-07-03 07:24:00,71.4,68.4,0.00,North,0,0.0,0.0,90,0.00,,,0.31,WUHU21623XXSP,2013-07-03 11:24:00,
2013-07-03 07:29:00,71.4,68.4,0.00,North,0,0.0,0.0,90,0.00,,,0.31,WUHU21623XXSP,2013-07-03 11:29:00,
2013-07-03 07:34:00,71.4,68.4,0.00,North,0,0.0,0.0,90,0.00,,,0.31,WUHU21623XXSP,2013-07-03 11:34:00,
2013-07-03 07:39:00,71.8,68.4,0.00,North,0,0.0,0.0,91,0.00,,,0.31,WUHU21623XXSP,2013-07-03 11:39:00,
2013-07-03 07:44:00,71.8,69.0,0.00,North,0,0.0,0.0,91,0.00,,,0.31,WUHU21623XXSP,2013-07-03 11:44:00,
2013-07-03 07:49:00,71.8,69.0,0.00,North,0,0.0,0.0,91,0.00,,,0.31,WUHU21623XXSP,2013-07-03 11:49:00,
2013-07-03 07:54:00,71.8,69.0,0.00,North,0,0.0,0.0,91,0.00,,,0.31,WUHU21623XXSP,2013-07-03 11:54:00,
2013-07-03 07:59:00,71.8,69.0,0.00,North,0,0.0,0.0,91,0.00,,,0.31,WUHU21623XXSP,2013-07-03 11:59:00,
2013-07-03 08:04:00,71.8,69.0,0.00,North,0,0.0,0.0,91,0.00,,,0.31,WUHU21623XXSP,2013-07-03 12:04:00,
2013-07-03 08:09:00,71.8,69.0,0.00,North,0,0.0,0.0,91,0.00,,,0.31,WUHU21623XXSP,2013-07-03 12:09:00,
2013-07-03 08:14:00,71.8,69.0,0.00,North,0,0.0,0.0,91,0.00,,,0.31,WUHU21623XXSP,2013-07-03 12:14:00,
2013-07-03 08:49:00,73.0,70.3,0.00,North,0,0.0,0.0,91,0.00,,,0.31,WUHU21623XXSP,2013-07-03 12:49:00,
2013-07-03 08:54:00,73.0,70.3,0.00,North,0,0.0,0.0,91,0.00,,,0.31,WUHU21623XXSP,2013-07-03 12:54:00,
2013-07-03 08:59:00,73.2,70.2,0.00,North,0,0.0,0.0,90,0.00,,,0.31,WUHU21623XXSP,2013-07-03 12:59:00,
2013-07-03 09:04:00,73.4,70.2,0.00,North,0,0.0,0.0,90,0.00,,,0.31,WUHU21623XXSP,2013-07-03 13:04:00,
2013-07-03 09:09:00,73.6,70.5,0.00,North,0,0.0,0.0,90,0.00,,,0.31,WUHU21623XXSP,2013-07-03 13:09:00,
2013-07-03 09:14:00,73.9,70.7,0.00,North,0,0.0,0.0,90,0.00,,,0.31,WUHU21623XXSP,2013-07-03 13:14:00,
2013-07-03 09:19:00,73.9,70.9,0.00,North,0,0.0,0.0,90,0.00,,,0.31,WUHU21623XXSP,2013-07-03 13:19:00,
2013-07-03 09:25:00,74.1,70.9,0.00,North,0,0.0,0.0,90,0.00,,,0.31,WUHU21623XXSP,2013-07-03 13:25:00,
2013-07-03 09:30:00,74.1,71.1,0.00,North,0,0.0,0.0,90,0.00,,,0.31,WUHU21623XXSP,2013-07-03 13:30:00,
2013-07-03 09:35:00,74.1,71.1,0.00,North,0,0.0,0.0,90,0.00,,,0.31,WUHU21623XXSP,2013-07-03 13:35:00,
2013-07-03 09:40:00,74.1,71.1,0.00,North,0,0.0,0.0,90,0.00,,,0.31,WUHU21623XXSP,2013-07-03 13:40:00,
2013-07-03 09:45:00,74.1,71.1,0.00,North,0,0.0,0.0,90,0.00,,,0.31,WUHU21623XXSP,2013-07-03 13:45:00,
2013-07-03 09:50:00,74.1,71.1,0.00,North,0,0.0,0.0,90,0.00,,,0.31,WUHU21623XXSP,2013-07-03 13:50:00,
2013-07-03 11:44:00,77.0,73.9,0.00,North,0,0.0,0.0,90,0.00,,,0.31,WUHU21623XXSP,2013-07-03 15:44:00,
2013-07-03 11:49:00,77.0,73.9,0.00,North,0,0.0,0.0,90,0.00,,,0.31,WUHU21623XXSP,2013-07-03 15:49:00,
2013-07-03 11:54:00,77.0,73.9,0.00,North,0,0.0,0.0,90,0.00,,,0.31,WUHU21623XXSP,2013-07-03 15:54:00,
2013-07-03 11:59:00,77.0,73.9,0.00,North,0,0.0,0.0,90,0.00,,,0.31,WUHU21623XXSP,2013-07-03 15:59:00,
2013-07-03 12:04:00,77.0,73.9,0.00,North,0,0.0,0.0,90,0.00,,,0.31,WUHU21623XXSP,2013-07-03 16:04:00,
2013-07-03 12:23:00,77.5,74.6,0.00,North,0,0.0,0.0,91,0.00,,,0.31,WUHU21623XXSP,2013-07-03 16:23:00,
2013-07-03 12:28:00,77.5,74.6,0.00,North,0,0.0,0.0,91,0.00,,,0.31,WUHU21623XXSP,2013-07-03 16:28:00,
2013-07-03 12:33:00,77.7,74.8,0.00,North,0,0.0,0.0,91,0.00,,,0.31,WUHU21623XXSP,2013-07-03 16:33:00,
2013-07-03 12:42:00,77.7,75.0,0.00,North,0,0.0,0.0,91,0.00,,,0.31,WUHU21623XXSP,2013-07-03 16:42:00,
2013-07-03 12:47:00,78.1,75.3,0.00,North,0,0.0,0.0,90,0.00,,,0.31,WUHU21623XXSP,2013-07-03 16:47:00,
2013-07-03 12:52:00,78.1,75.0,0.00,North,0,0.0,0.0,90,0.00,,,0.31,WUHU21623XXSP,2013-07-03 16:52:00,
2013-07-03 12:57:00,78.1,75.0,0.00,North,0,0.0,0.0,90,0.00,,,0.31,WUHU21623XXSP,2013-07-03 16:57:00,
2013-07-03 13:02:00,78.1,75.0,0.00,North,0,0.0,0.0,90,0.00,,,0.31,WUHU21623XXSP,2013-07-03 17:02:00,
2013-07-03 13:07:00,78.1,75.0,0.00,North,0,0.0,0.0,90,0.00,,,0.31,WUHU21623XXSP,2013-07-03 17:07:00,
2013-07-03 13:12:00,78.1,75.0,0.00,North,0,0.0,0.0,90,0.00,,,0.31,WUHU21623XXSP,2013-07-03 17:12:00,
2013-07-03 13:17:00,78.1,75.0,0.00,North,0,0.0,0.0,90,0.00,,,0.31,WUHU21623XXSP,2013-07-03 17:17:00,
2013-07-03 13:22:00,78.1,75.0,0.00,North,0,0.0,0.0,90,0.00,,,0.31,WUHU21623XXSP,2013-07-03 17:22:00,
2013-07-03 13:28:00,78.1,75.0,0.00,North,0,0.0,0.0,90,0.00,,,0.31,WUHU21623XXSP,2013-07-03 17:28:00,
2013-07-03 13:33:00,78.1,75.0,0.00,North,0,0.0,0.0,90,0.00,,,0.31,WUHU21623XXSP,2013-07-03 17:33:00,
2013-07-03 13:38:00,78.1,75.0,0.00,North,0,0.0,0.0,90,0.00,,,0.31,WUHU21623XXSP,2013-07-03 17:38:00,
2013-07-03 13:43:00,77.9,74.8,0.00,North,0,0.0,0.0,90,0.00,,,0.31,WUHU21623XXSP,2013-07-03 17:43:00,
2013-07-03 13:48:00,77.7,74.8,0.00,North,0,0.0,0.0,90,0.00,,,0.31,WUHU21623XXSP,2013-07-03 17:48:00,
2013-07-03 13:54:00,77.7,74.7,0.00,North,0,0.0,0.0,90,0.00,,,0.31,WUHU21623XXSP,2013-07-03 17:54:00,
2013-07-03 13:59:00,77.7,74.7,0.00,North,0,0.0,0.0,90,0.00,,,0.31,WUHU21623XXSP,2013-07-03 17:59:00,
2013-07-03 14:04:00,78.1,74.8,0.00,North,0,0.0,0.0,90,0.00,,,0.31,WUHU21623XXSP,2013-07-03 18:04:00,
2013-07-03 14:09:00,78.1,75.0,0.00,North,0,0.0,0.0,90,0.00,,,0.31,WUHU21623XXSP,2013-07-03 18:09:00,
2013-07-03 14:15:00,78.4,75.0,0.00,North,0,0.0,0.0,90,0.00,,,0.31,WUHU21623XXSP,2013-07-03 18:15:00,
2013-07-03 14:20:00,78.4,75.4,0.00,North,0,0.0,0.0,90,0.00,,,0.31,WUHU21623XXSP,2013-07-03 18:20:00,
2013-07-03 14:25:00,78.4,75.4,0.00,North,0,0.0,0.0,90,0.00,,,0.31,WUHU21623XXSP,2013-07-03 18:25:00,
2013-07-03 14:30:00,78.1,75.0,0.00,North,0,0.0,0.0,89,0.00,,,0.31,WUHU21623XXSP,2013-07-03 18:30:00,
2013-07-03 14:35:00,77.9,74.5,0.00,North,0,0.0,0.0,89,0.00,,,0.31,WUHU21623XXSP,2013-07-03 18:35:00,
2013-07-03 14:42:00,77.9,74.5,0.00,North,0,0.0,0.0,89,0.00,,,0.31,WUHU21623XXSP,2013-07-03 18:42:00,
2013-07-03 14:47:00,77.9,74.5,0.00,North,0,0.0,0.0,89,0.00,,,0.31,WUHU21623XXSP,2013-07-03 18:47:00,
2013-07-03 14:52:00,77.9,74.5,0.00,North,0,0.0,0.0,89,0.00,,,0.31,WUHU21623XXSP,2013-07-03 18:52:00,
2013-07-03 15:03:00,77.9,74.5,0.00,North,0,0.0,0.0,89,0.00,,,0.31,WUHU21623XXSP,2013-07-03 19:03:00,
2013-07-03 15:08:00,77.9,74.5,0.00,North,0,0.0,0.0,89,0.00,,,0.31,WUHU21623XXSP,2013-07-03 19:08:00,
2013-07-03 15:14:00,77.7,74.3,0.00,North,0,0.0,0.0,89,0.00,,,0.31,WUHU21623XXSP,2013-07-03 19:14:00,
2013-07-03 15:19:00,77.5,74.1,0.00,North,0,0.0,0.0,89,0.00,,,0.31,WUHU21623XXSP,2013-07-03 19:19:00,
2013-07-03 15:24:00,77.7,74.1,0.00,North,0,0.0,0.0,89,0.00,,,0.31,WUHU21623XXSP,2013-07-03 19:24:00,
2013-07-03 15:29:00,77.5,74.1,0.00,North,0,0.0,0.0,89,0.00,,,0.31,WUHU21623XXSP,2013-07-03 19:29:00,
2013-07-03 15:34:00,77.7,74.3,0.00,North,0,0.0,0.0,89,0.00,,,0.31,WUHU21623XXSP,2013-07-03 19:34:00,
2013-07-03 15:39:00,77.7,74.3,0.00,North,0,0.0,0.0,89,0.00,,,0.31,WUHU21623XXSP,2013-07-03 19:39:00,
2013-07-03 15:44:00,77.9,74.5,0.00,North,0,0.0,0.0,89,0.00,,,0.31,WUHU21623XXSP,2013-07-03 19:44:00,
2013-07-03 15:49:00,77.7,74.3,0.00,North,0,0.0,0.0,89,0.00,,,0.31,WUHU21623XXSP,2013-07-03 19:49:00,
2013-07-03 15:54:00,77.9,74.5,0.00,North,0,0.0,0.0,89,0.00,,,0.31,WUHU21623XXSP,2013-07-03 19:54:00,
2013-07-03 15:59:00,77.9,74.5,0.00,North,0,0.0,0.0,89,0.00,,,0.31,WUHU21623XXSP,2013-07-03 19:59:00,
2013-07-03 16:04:00,78.1,74.7,0.00,North,0,0.0,0.0,89,0.00,,,0.31,WUHU21623XXSP,2013-07-03 20:04:00,
2013-07-03 16:09:00,78.1,74.7,0.00,North,0,0.0,0.0,89,0.00,,,0.31,WUHU21623XXSP,2013-07-03 20:09:00,
2013-07-03 16:14:00,78.1,74.7,0.00,North,0,0.0,0.0,89,0.00,,,0.31,WUHU21623XXSP,2013-07-03 20:14:00,
2013-07-03 16:19:00,77.9,74.7,0.00,North,0,0.0,0.0,89,0.00,,,0.31,WUHU21623XXSP,2013-07-03 20:19:00,
2013-07-03 16:24:00,77.9,74.5,0.00,North,0,0.0,0.0,89,0.00,,,0.31,WUHU21623XXSP,2013-07-03 20:24:00,
2013-07-03 16:29:00,77.9,74.5,0.00,North,0,0.0,0.0,89,0.00,,,0.31,WUHU21623XXSP,2013-07-03 20:29:00,
2013-07-03 16:34:00,77.9,74.5,0.00,North,0,0.0,0.0,89,0.00,,,0.31,WUHU21623XXSP,2013-07-03 20:34:00,
2013-07-03 16:39:00,78.1,74.7,0.00,North,0,0.0,0.0,89,0.00,,,0.31,WUHU21623XXSP,2013-07-03 20:39:00,
2013-07-03 16:44:00,78.1,74.5,0.00,North,0,0.0,0.0,89,0.00,,,0.31,WUHU21623XXSP,2013-07-03 20:44:00,
2013-07-03 16:49:00,77.9,74.7,0.00,North,0,0.0,0.0,89,0.00,,,0.31,WUHU21623XXSP,2013-07-03 20:49:00,
2013-07-03 16:54:00,77.9,74.5,0.00,North,0,0.0,0.0,89,0.00,,,0.31,WUHU21623XXSP,2013-07-03 20:54:00,
2013-07-03 16:59:00,77.9,74.3,0.00,North,0,0.0,0.0,89,0.00,,,0.31,WUHU21623XXSP,2013-07-03 20:59:00,
2013-07-03 17:04:00,77.7,74.5,0.00,North,0,0.0,0.0,89,0.00,,,0.31,WUHU21623XXSP,2013-07-03 21:04:00,
2013-07-03 17:09:00,77.7,74.3,0.00,North,0,0.0,0.0,89,0.00,,,0.31,WUHU21623XXSP,2013-07-03 21:09:00,
2013-07-03 17:15:00,77.7,74.3,0.00,North,0,0.0,0.0,89,0.00,,,0.31,WUHU21623XXSP,2013-07-03 21:15:00,
2013-07-03 17:20:00,77.5,74.1,0.00,North,0,0.0,0.0,89,0.00,,,0.31,WUHU21623XXSP,2013-07-03 21:20:00,
2013-07-03 17:25:00,77.5,74.1,0.00,North,0,0.0,0.0,89,0.00,,,0.31,WUHU21623XXSP,2013-07-03 21:25:00,
2013-07-03 17:30:00,77.5,74.1,0.00,North,0,0.0,0.0,89,0.00,,,0.31,WUHU21623XXSP,2013-07-03 21:30:00,
2013-07-03 17:36:00,77.4,73.9,0.00,North,0,0.0,0.0,89,0.00,,,0.31,WUHU21623XXSP,2013-07-03 21:36:00,
2013-07-03 17:41:00,77.4,73.9,0.00,North,0,0.0,0.0,89,0.00,,,0.31,WUHU21623XXSP,2013-07-03 21:41:00,
2013-07-03 17:46:00,77.4,73.9,0.00,North,0,0.0,0.0,89,0.00,,,0.31,WUHU21623XXSP,2013-07-03 21:46:00,
2013-07-03 17:51:00,77.2,73.8,0.00,North,0,0.0,0.0,89,0.00,,,0.31,WUHU21623XXSP,2013-07-03 21:51:00,
2013-07-03 17:56:00,77.2,73.8,0.00,North,0,0.0,0.0,89,0.00,,,0.31,WUHU21623XXSP,2013-07-03 21:56:00,
2013-07-03 18:01:00,77.2,73.8,0.00,North,0,0.0,0.0,89,0.00,,,0.31,WUHU21623XXSP,2013-07-03 22:01:00,
2013-07-03 18:06:00,77.2,73.8,0.00,North,0,0.0,0.0,89,0.00,,,0.31,WUHU21623XXSP,2013-07-03 22:06:00,
2013-07-03 18:11:00,77.0,73.8,0.00,North,0,0.0,0.0,89,0.00,,,0.31,WUHU21623XXSP,2013-07-03 22:11:00,
2013-07-03 18:16:00,77.0,73.6,0.00,North,0,0.0,0.0,89,0.00,,,0.31,WUHU21623XXSP,2013-07-03 22:16:00,
2013-07-03 18:21:00,76.8,73.6,0.00,North,0,0.0,0.0,90,0.00,,,0.31,WUHU21623XXSP,2013-07-03 22:21:00,
2013-07-03 18:26:00,76.8,73.8,0.00,North,0,0.0,0.0,90,0.00,,,0.31,WUHU21623XXSP,2013-07-03 22:26:00,
2013-07-03 18:32:00,76.8,73.8,0.00,North,0,0.0,0.0,90,0.00,,,0.31,WUHU21623XXSP,2013-07-03 22:32:00,
2013-07-03 18:37:00,76.8,73.8,0.00,North,0,0.0,0.0,90,0.00,,,0.31,WUHU21623XXSP,2013-07-03 22:37:00,
2013-07-03 18:42:00,76.8,73.8,0.00,North,0,0.0,0.0,90,0.02,,,0.33,WUHU21623XXSP,2013-07-03 22:42:00,
2013-07-03 18:47:00,76.6,73.6,0.00,North,0,0.0,0.0,90,0.02,,,0.33,WUHU21623XXSP,2013-07-03 22:47:00,
2013-07-03 18:52:00,76.6,73.6,0.00,North,0,0.0,0.0,90,0.02,,,0.33,WUHU21623XXSP,2013-07-03 22:52:00,
2013-07-03 18:57:00,76.6,73.6,0.00,North,0,0.0,0.0,90,0.04,,,0.35,WUHU21623XXSP,2013-07-03 22:57:00,
2013-07-03 19:02:00,76.6,73.4,0.00,North,0,0.0,0.0,90,0.04,,,0.35,WUHU21623XXSP,2013-07-03 23:02:00,
2013-07-03 19:07:00,76.5,73.4,0.00,North,0,0.0,0.0,90,0.04,,,0.35,WUHU21623XXSP,2013-07-03 23:07:00,
2013-07-03 19:12:00,76.3,73.2,0.00,North,0,0.0,0.0,90,0.04,,,0.35,WUHU21623XXSP,2013-07-03 23:12:00,
2013-07-03 19:17:00,76.3,73.2,0.00,North,0,0.0,0.0,90,0.04,,,0.35,WUHU21623XXSP,2013-07-03 23:17:00,
2013-07-03 19:22:00,76.3,73.2,0.00,North,0,0.0,0.0,90,0.04,,,0.35,WUHU21623XXSP,2013-07-03 23:22:00,
2013-07-03 19:27:00,76.3,73.2,0.00,North,0,0.0,0.0,90,0.04,,,0.35,WUHU21623XXSP,2013-07-03 23:27:00,
2013-07-03 19:33:00,76.3,73.2,0.00,North,0,0.0,0.0,90,0.04,,,0.35,WUHU21623XXSP,2013-07-03 23:33:00,
2013-07-03 19:38:00,76.3,73.2,0.00,North,0,0.0,0.0,90,0.02,,,0.35,WUHU21623XXSP,2013-07-03 23:38:00,
2013-07-03 19:43:00,76.3,73.2,0.00,North,0,0.0,0.0,90,0.02,,,0.35,WUHU21623XXSP,2013-07-03 23:43:00,
2013-07-03 19:48:00,76.3,73.2,0.00,North,0,0.0,0.0,90,0.02,,,0.35,WUHU21623XXSP,2013-07-03 23:48:00,
2013-07-03 19:53:00,76.3,73.2,0.00,North,0,0.0,0.0,90,0.02,,,0.35,WUHU21623XXSP,2013-07-03 23:53:00,
2013-07-03 19:58:00,75.9,73.0,0.00,North,0,0.0,0.0,90,0.00,,,0.35,WUHU21623XXSP,2013-07-03 23:58:00,
2013-07-03 20:03:00,75.9,72.9,0.00,North,0,0.0,0.0,90,0.00,,,0.35,WUHU21623XXSP,2013-07-04 00:03:00,
2013-07-03 20:08:00,75.9,72.9,0.00,North,0,0.0,0.0,90,0.00,,,0.35,WUHU21623XXSP,2013-07-04 00:08:00,
2013-07-03 20:13:00,75.7,72.9,0.00,North,0,0.0,0.0,90,0.00,,,0.35,WUHU21623XXSP,2013-07-04 00:13:00,
2013-07-03 20:18:00,75.7,72.7,0.00,North,0,0.0,0.0,90,0.00,,,0.35,WUHU21623XXSP,2013-07-04 00:18:00,
2013-07-03 20:23:00,75.7,72.7,0.00,North,0,0.0,0.0,90,0.00,,,0.35,WUHU21623XXSP,2013-07-04 00:23:00,
2013-07-03 20:28:00,75.7,72.7,0.00,North,0,0.0,0.0,90,0.00,,,0.35,WUHU21623XXSP,2013-07-04 00:28:00,
2013-07-03 20:33:00,75.7,72.7,0.00,North,0,0.0,0.0,90,0.00,,,0.35,WUHU21623XXSP,2013-07-04 00:33:00,
2013-07-03 20:38:00,75.7,72.7,0.00,North,0,0.0,0.0,90,0.00,,,0.35,WUHU21623XXSP,2013-07-04 00:38:00,
2013-07-03 21:28:00,75.0,72.0,0.00,North,0,0.0,0.0,90,0.00,,,0.35,WUHU21623XXSP,2013-07-04 01:28:00,
2013-07-03 21:33:00,75.0,72.0,0.00,North,0,0.0,0.0,90,0.00,,,0.35,WUHU21623XXSP,2013-07-04 01:33:00,
2013-07-03 21:38:00,75.0,72.0,0.00,North,0,0.0,0.0,90,0.00,,,0.35,WUHU21623XXSP,2013-07-04 01:38:00,
2013-07-03 21:43:00,74.8,72.0,0.00,North,0,0.0,0.0,90,0.00,,,0.35,WUHU21623XXSP,2013-07-04 01:43:00,
2013-07-03 21:48:00,74.8,71.8,0.00,North,0,0.0,0.0,90,0.00,,,0.35,WUHU21623XXSP,2013-07-04 01:48:00,
2013-07-03 21:53:00,74.8,71.8,0.00,North,0,0.0,0.0,90,0.00,,,0.35,WUHU21623XXSP,2013-07-04 01:53:00,
2013-07-03 21:58:00,74.8,71.8,0.00,North,0,0.0,0.0,90,0.00,,,0.35,WUHU21623XXSP,2013-07-04 01:58:00,
2013-07-03 22:03:00,74.8,71.8,0.00,North,0,0.0,0.0,90,0.00,,,0.35,WUHU21623XXSP,2013-07-04 02:03:00,
2013-07-03 22:08:00,74.8,71.8,0.00,North,0,0.0,0.0,90,0.00,,,0.35,WUHU21623XXSP,2013-07-04 02:08:00,
2013-07-03 22:13:00,74.8,71.8,0.00,North,0,0.0,0.0,90,0.00,,,0.35,WUHU21623XXSP,2013-07-04 02:13:00,
2013-07-03 22:18:00,74.7,71.6,0.00,North,0,0.0,0.0,90,0.00,,,0.35,WUHU21623XXSP,2013-07-04 02:18:00,
2013-07-03 22:23:00,74.5,71.4,0.00,North,0,0.0,0.0,90,0.00,,,0.35,WUHU21623XXSP,2013-07-04 02:23:00,
2013-07-03 22:28:00,74.5,71.4,0.00,North,0,0.0,0.0,90,0.00,,,0.35,WUHU21623XXSP,2013-07-04 02:28:00,
2013-07-03 22:33:00,74.5,71.4,0.00,North,0,0.0,0.0,90,0.00,,,0.35,WUHU21623XXSP,2013-07-04 02:33:00,
2013-07-03 22:38:00,74.5,71.4,0.00,North,0,0.0,0.0,90,0.00,,,0.35,WUHU21623XXSP,2013-07-04 02:38:00,
2013-07-03 22:43:00,74.5,71.4,0.00,North,0,0.0,0.0,90,0.00,,,0.35,WUHU21623XXSP,2013-07-04 02:43:00,
2013-07-03 22:48:00,74.3,71.2,0.00,North,0,0.0,0.0,90,0.00,,,0.35,WUHU21623XXSP,2013-07-04 02:48:00,
2013-07-03 22:53:00,74.3,71.2,0.00,North,0,0.0,0.0,90,0.00,,,0.35,WUHU21623XXSP,2013-07-04 02:53:00,
2013-07-03 22:58:00,74.3,71.2,0.00,North,0,0.0,0.0,90,0.00,,,0.35,WUHU21623XXSP,2013-07-04 02:58:00,
2013-07-03 23:03:00,74.3,71.2,0.00,North,0,0.0,0.0,90,0.00,,,0.35,WUHU21623XXSP,2013-07-04 03:03:00,
2013-07-03 23:09:00,74.3,71.2,0.00,North,0,0.0,0.0,90,0.00,,,0.35,WUHU21623XXSP,2013-07-04 03:09:00,
2013-07-03 23:14:00,74.1,71.2,0.00,North,0,0.0,0.0,90,0.00,,,0.35,WUHU21623XXSP,2013-07-04 03:14:00,
2013-07-03 23:19:00,74.3,71.2,0.00,North,0,0.0,0.0,90,0.00,,,0.35,WUHU21623XXSP,2013-07-04 03:19:00,
2013-07-03 23:24:00,74.1,71.1,0.00,North,0,0.0,0.0,90,0.00,,,0.35,WUHU21623XXSP,2013-07-04 03:24:00,
2013-07-03 23:29:00,74.1,71.1,0.00,North,0,0.0,0.0,90,0.00,,,0.35,WUHU21623XXSP,2013-07-04 03:29:00,
2013-07-03 23:34:00,74.1,71.1,0.00,North,0,0.0,0.0,90,0.00,,,0.35,WUHU21623XXSP,2013-07-04 03:34:00,
2013-07-03 23:39:00,74.1,71.1,0.00,North,0,0.0,0.0,90,0.00,,,0.35,WUHU21623XXSP,2013-07-04 03:39:00,
2013-07-03 23:44:00,74.1,71.1,0.00,North,0,0.0,0.0,90,0.00,,,0.35,WUHU21623XXSP,2013-07-04 03:44:00,
2013-07-03 23:49:00,74.1,71.1,0.00,North,0,0.0,0.0,90,0.00,,,0.35,WUHU21623XXSP,2013-07-04 03:49:00,
2013-07-03 23:54:00,74.1,71.1,0.00,North,0,0.0,0.0,90,0.00,,,0.35,WUHU21623XXSP,2013-07-04 03:54:00,
2013-07-03 23:59:00,74.1,71.1,0.00,North,0,0.0,0.0,90,0.00,,,0.35,WUHU21623XXSP,2013-07-04 03:59:00,